Ellensburg, WA
on Friday, November 16, 2012

Friday
Previous Day Next Day
Daily Summary
 ActualAverage (KYKM)Record (KYKM)
Temperature
Mean Temperature °F 37°F  
Max Temperature 42°F 48°F 63°F (1949)
Min Temperature 39°F 27°F 9°F (1955)
Degree Days
Heating Degree Days 24 28  
Month to date heating degree days 400  
Since 1 July heating degree days 1104  
Cooling Degree Days 0 0  
Month to date cooling degree days 0  
Year to date cooling degree days 472  
Moisture
Dew Point 35°F   
Average Humidity 81    
Maximum Humidity 87    
Minimum Humidity 70    
Precipitation
Precipitation 0.00 in 0.04 in 0.30 in (1981)
Month to date precipitation 0.51  
Year to date precipitation 6.18  
Snow
Snow 0.00 in 0.10 in 1.70 in (2011)
Month to date snowfall 0.9  
Year to date snowfall 9.6  
Since 1 July snowfall 1.0  
Snow Depth in   
Wind
Wind Speed 1 mph   
Max Wind Speed 7 mph   
Max Gust Speed mph   
Visibility 7 miles   
Events     

Key: T is trace of precipitation, MM is missing value
Source: NWS Daily Summary
Time(PST)TemperatureDew PointHumidity Pressure Visibility Wind DirectionWind SpeedGust SpeedPrecipitationEvents Conditions
12:04 AM 39.2°F 33.8°F 81% 29.98 in 9.0 miles Calm Calm - N/A   Overcast
12:48 AM 39.2°F 33.8°F 81% 29.97 in 8.0 miles Calm Calm - N/A   Overcast
12:53 AM 39.0°F 34.0°F 82% 30.01 in 8.0 miles Calm Calm - N/A   Overcast
1:31 AM 39.2°F 33.8°F 81% 29.97 in 8.0 miles Calm Calm - N/A   Overcast
1:53 AM 39.0°F 34.0°F 82% 30.01 in 8.0 miles Calm Calm - N/A   Overcast
2:01 AM 39.2°F 33.8°F 81% 29.97 in 8.0 miles Calm Calm - N/A   Overcast
2:10 AM 39.2°F 33.8°F 81% 29.97 in 8.0 miles Calm Calm - N/A   Overcast
2:16 AM 39.2°F 33.8°F 81% 29.97 in 7.0 miles Calm Calm - N/A   Overcast
2:53 AM 39.0°F 35.1°F 86% 30.00 in 7.0 miles Calm Calm - N/A   Overcast
3:53 AM 39.0°F 34.0°F 82% 29.98 in 7.0 miles Calm Calm - N/A   Overcast
4:27 AM 39.2°F 33.8°F 81% 29.95 in 7.0 miles Calm Calm - N/A   Overcast
4:53 AM 39.0°F 34.0°F 82% 29.98 in 7.0 miles Calm Calm - N/A   Overcast
5:45 AM 39.2°F 35.6°F 87% 29.95 in 5.0 miles Calm Calm - N/A   Overcast
5:53 AM 39.0°F 35.1°F 86% 29.98 in 5.0 miles Calm Calm - N/A   Overcast
6:00 AM 39.2°F 35.6°F 87% 29.94 in 5.0 miles Calm Calm - N/A   Overcast
6:09 AM 39.2°F 35.6°F 87% 29.94 in 5.0 miles Calm Calm - N/A   Overcast
6:53 AM 39.0°F 35.1°F 86% 29.98 in 5.0 miles Calm Calm - N/A   Overcast
7:53 AM 39.0°F 35.1°F 86% 29.99 in 7.0 miles Calm Calm - N/A   Overcast
8:53 AM 39.0°F 35.1°F 86% 30.00 in 5.0 miles Calm Calm - N/A   Overcast
9:05 AM 39.2°F 35.6°F 87% 29.97 in 5.0 miles Calm Calm - N/A   Overcast
9:53 AM 39.9°F 35.1°F 83% 30.01 in 7.0 miles Calm Calm - N/A   Overcast
10:53 AM 41.0°F 34.0°F 76% 29.99 in 9.0 miles Calm Calm - N/A   Overcast
11:53 AM 42.1°F 34.0°F 73% 29.98 in 10.0 miles Calm Calm - N/A   Overcast
12:22 PM 42.8°F 33.8°F 70% 29.94 in 10.0 miles Calm Calm - N/A   Overcast
12:53 PM 42.1°F 34.0°F 73% 29.96 in 10.0 miles Calm Calm - N/A   Overcast
1:53 PM 42.1°F 34.0°F 73% 29.96 in 10.0 miles Calm Calm - N/A   Overcast
2:53 PM 42.1°F 34.0°F 73% 29.95 in 10.0 miles Calm Calm - N/A   Overcast
3:53 PM 42.1°F 33.1°F 70% 29.95 in 10.0 miles Calm Calm - N/A   Overcast
4:23 PM 42.8°F 33.8°F 70% 29.92 in 10.0 miles Calm Calm - N/A   Overcast
4:53 PM 42.1°F 34.0°F 73% 29.95 in 10.0 miles Calm Calm - N/A   Overcast
5:53 PM 41.0°F 36.0°F 82% 29.95 in 5.0 miles ESE 4.6 mph - N/A   Haze
6:53 PM 41.0°F 36.0°F 82% 29.94 in 5.0 miles ESE 5.8 mph - N/A   Haze
7:53 PM 41.0°F 36.0°F 82% 29.94 in 5.0 miles ESE 6.9 mph - N/A   Haze
8:17 PM 41.0°F 35.6°F 81% 29.91 in 5.0 miles ESE 5.8 mph - N/A   Haze
8:43 PM 41.0°F 35.6°F 81% 29.91 in 5.0 miles ESE 4.6 mph - N/A   Haze
8:53 PM 41.0°F 36.0°F 82% 29.94 in 5.0 miles ESE 6.9 mph - N/A   Haze
9:53 PM 41.0°F 36.0°F 82% 29.94 in 6.0 miles East 4.6 mph - N/A   Haze
10:16 PM 41.0°F 35.6°F 81% 29.90 in 6.0 miles ESE 5.8 mph - N/A   Haze
10:53 PM 39.9°F 36.0°F 86% 29.92 in 6.0 miles SE 4.6 mph - N/A   Overcast
11:07 PM 39.2°F 35.6°F 87% 29.88 in 6.0 miles SSE 4.6 mph - N/A   Overcast
11:45 PM 39.2°F 35.6°F 87% 29.88 in 6.0 miles Calm Calm - N/A   Mostly Cloudy
11:53 PM 39.9°F 35.1°F 83% 29.91 in 6.0 miles NNE 4.6 mph - N/A   Haze
Moon Phase
Nov. 16 Nov. 20 Nov. 28 Dec. 06 Dec. 13
Sunrise:07:07 AM (PST) Moon Rise:10:10 AM (PST)11/16
Sunset:04:25 PM (PST) Moon Set:07:28 PM (PST)11/16

Copyright © 2014 The Weather Underground, Inc.